Weather History for KTYS - October, 2011

Change the Weather History Date:

Thursday, October 13, 2011

  Actual Average Record
Temperature  
Mean Temperature 65 °F 61 °F  
Max Temperature 70 °F 72 °F 89 °F (1935)
Min Temperature 59 °F 49 °F 27 °F (1988)
Degree Days  
Heating Degree Days 0 5  
Month to date heating degree days 51 51  
Since 1 July heating degree days 62 74  
Cooling Degree Days 0 1  
Month to date cooling degree days 7 24  
Year to date cooling degree days 1856 1511  
Growing Degree Days 14 (Base 50)    
Moisture  
Dew Point 59 °F    
Average Humidity 87    
Maximum Humidity 100    
Minimum Humidity 73    
Precipitation  
Precipitation 0.42 in 0.08 in 1.39 in (1983)
Month to date precipitation 1.00 1.04  
Year to date precipitation 40.89 37.88  
Snow  
Snow 0.00 in 0.00 in - ()
Month to date snowfall 0.0 0.0  
Since 1 July snowfall 0.0 0.0  
Since 1 September snowfall 0.0 0.0  
Snow Depth 0.00 in    
Sea Level Pressure  
Sea Level Pressure 29.65 in    
Wind  
Wind Speed 8 mph (SW)    
Max Wind Speed 25 mph    
Max Gust Speed 31 mph    
Visibility 7 miles    
Events Rain , Thunderstorm    
T = Trace of Precipitation, MM = Missing Value Source: NWS Daily Summary

Daily Weather History Graph

Daily Weather History Graph

Search for Another Location

Airport or City:

Trip Planner

Search our weather history database for the weather conditions in past years. The results will help you decide how hot, cold, wet, or windy it might be!

Date:

Astronomy

Oct. 13, 2011 Rise Set
Actual Time 7:40 AM EDT 7:03 PM EDT
Civil Twilight 7:14 AM EDT 7:28 PM EDT
Nautical Twilight 6:45 AM EDT 7:58 PM EDT
Astronomical Twilight 6:15 AM EDT 8:28 PM EDT
Moon 7:44 PM EDT (10/13) 9:06 AM EDT (10/13)
Length of Visible Light 12h 14m
Length of Day
11h 22m
Full, 98% of the Moon is Illuminated
Oct 13
Full
Oct 19
Last Quarter
Oct 26
New
Nov 2
First Quarter
Nov 10
Full

Hourly Weather History & Observations

Time (EDT) Temp. Dew Point Humidity Pressure Visibility Wind Dir Wind Speed Gust Speed Precip Events Conditions
12:53 AM 63.0 °F 59.0 °F 87% 29.75 in 9.0 mi Calm Calm - 0.00 in Rain Light Rain
1:08 AM 62.6 °F 60.8 °F 94% 29.76 in 4.0 mi Calm Calm - 0.01 in Rain Light Rain
1:53 AM 61.0 °F 60.1 °F 97% 29.73 in 7.0 mi Calm Calm - 0.02 in Rain Light Rain
2:16 AM 60.8 °F 60.8 °F 100% 29.75 in 2.5 mi Calm Calm - 0.01 in Rain Light Rain
2:23 AM 60.8 °F 60.8 °F 100% 29.74 in 2.5 mi Calm Calm - 0.01 in Rain Light Rain
2:53 AM 61.0 °F 60.1 °F 97% 29.71 in 2.5 mi Calm Calm - 0.02 in Rain Light Rain
3:00 AM 60.8 °F 60.8 °F 100% 29.73 in 7.0 mi Calm Calm - 0.00 in Rain Light Rain
3:13 AM 60.8 °F 59.0 °F 94% 29.72 in 2.5 mi Calm Calm - 0.00 in Rain Light Rain
3:53 AM 61.0 °F 60.1 °F 97% 29.69 in 2.5 mi Calm Calm - 0.00 in Rain Light Rain
4:00 AM 60.8 °F 60.8 °F 100% 29.71 in 7.0 mi Calm Calm - 0.00 in Rain Light Rain
4:28 AM 60.8 °F 60.8 °F 100% 29.70 in 4.0 mi Calm Calm - 0.00 in   Drizzle
4:53 AM 61.0 °F 60.1 °F 97% 29.68 in 4.0 mi Calm Calm - 0.00 in   Drizzle
5:01 AM 60.8 °F 60.8 °F 100% 29.70 in 1.5 mi Calm Calm - 0.00 in   Drizzle
5:46 AM 60.8 °F 60.8 °F 100% 29.69 in 2.0 mi Calm Calm - 0.03 in Rain Light Rain
5:53 AM 61.0 °F 60.1 °F 97% 29.67 in 2.0 mi Calm Calm - 0.04 in Rain Light Rain
6:50 AM 60.8 °F 60.8 °F 100% 29.68 in 2.5 mi Calm Calm - 0.01 in   Overcast
6:53 AM 61.0 °F 60.1 °F 97% 29.66 in 2.0 mi Calm Calm - 0.01 in   Overcast
7:53 AM 61.0 °F 60.1 °F 97% 29.65 in 2.0 mi Calm Calm - N/A   Overcast
8:09 AM 60.8 °F 60.8 °F 100% 29.67 in 2.5 mi Calm Calm - N/A   Overcast
8:53 AM 62.1 °F 61.0 °F 96% 29.65 in 1.5 mi South 3.5 mph - 0.00 in Rain Light Rain
9:15 AM 62.6 °F 60.8 °F 94% 29.66 in 2.5 mi Calm Calm - 0.01 in   Overcast
9:30 AM 62.6 °F 60.8 °F 94% 29.66 in 4.0 mi SSW 4.6 mph - 0.01 in Rain Light Rain
9:53 AM 63.0 °F 61.0 °F 93% 29.64 in 7.0 mi SSW 9.2 mph - 0.01 in   Overcast
10:06 AM 64.4 °F 60.8 °F 88% 29.66 in 10.0 mi SW 9.2 mph - N/A   Overcast
10:15 AM 64.4 °F 60.8 °F 88% 29.65 in 10.0 mi SW 9.2 mph - N/A   Overcast
10:43 AM 64.4 °F 60.8 °F 88% 29.65 in 10.0 mi SW 12.7 mph - N/A   Mostly Cloudy
10:53 AM 64.9 °F 61.0 °F 87% 29.62 in 10.0 mi SW 12.7 mph - N/A   Mostly Cloudy
11:15 AM 66.2 °F 60.8 °F 83% 29.63 in 10.0 mi SSW 15.0 mph - N/A   Mostly Cloudy
11:53 AM 66.9 °F 60.1 °F 79% 29.61 in 10.0 mi SW 15.0 mph - N/A   Mostly Cloudy
12:53 PM 66.9 °F 62.1 °F 84% 29.59 in 10.0 mi SW 10.4 mph - 0.00 in   Mostly Cloudy
1:19 PM 68.0 °F 60.8 °F 78% 29.60 in 10.0 mi SSW 17.3 mph 25.3 mph N/A   Overcast
1:45 PM 66.2 °F 60.8 °F 83% 29.59 in 10.0 mi SSW 21.9 mph 28.8 mph 0.00 in   Mostly Cloudy
1:53 PM 69.1 °F 61.0 °F 75% 29.57 in 10.0 mi SSW 20.7 mph 28.8 mph 0.00 in   Mostly Cloudy
2:53 PM 66.0 °F 57.0 °F 73% 29.56 in 10.0 mi WSW 17.3 mph - 0.00 in Rain Light Rain
3:53 PM 62.1 °F 57.9 °F 86% 29.57 in 6.0 mi SSW 16.1 mph - 0.01 in Rain Light Rain
4:25 PM 62.6 °F 59.0 °F 88% 29.59 in 10.0 mi SSW 9.2 mph - 0.02 in   Overcast
4:53 PM 63.0 °F 60.1 °F 90% 29.58 in 10.0 mi South 5.8 mph - 0.02 in   Overcast
5:53 PM 62.1 °F 60.1 °F 93% 29.59 in 4.0 mi SSW 4.6 mph - 0.01 in Rain Light Rain
5:56 PM 62.6 °F 60.8 °F 94% 29.62 in 2.0 mi SW 8.1 mph - 0.00 in Rain Heavy Rain
5:58 PM 62.6 °F 60.8 °F 94% 29.61 in 1.5 mi WSW 18.4 mph 21.9 mph 0.01 in Rain Heavy Rain
6:00 PM 60.8 °F 59.0 °F 94% 29.61 in 1.2 mi WSW 15.0 mph 21.9 mph 0.03 in Rain Heavy Rain
6:03 PM 60.8 °F 57.2 °F 88% 29.61 in 1.5 mi West 11.5 mph 21.9 mph 0.09 in Rain Rain
6:04 PM 60.8 °F 57.2 °F 88% 29.61 in 2.5 mi West 11.5 mph 21.9 mph 0.12 in Rain Light Rain
6:06 PM 60.8 °F 57.2 °F 88% 29.61 in 3.0 mi West 11.5 mph 21.9 mph 0.17 in Rain , Thunderstorm Light Thunderstorms and Rain
6:23 PM 60.8 °F 59.0 °F 94% 29.61 in 10.0 mi WSW 4.6 mph - 0.20 in Rain Light Rain
6:53 PM 61.0 °F 59.0 °F 93% 29.61 in 10.0 mi SSW 8.1 mph - 0.20 in   Overcast
7:11 PM 60.8 °F 59.0 °F 94% 29.63 in 10.0 mi South 6.9 mph - N/A   Overcast
7:39 PM 60.8 °F 57.2 °F 88% 29.64 in 10.0 mi South 8.1 mph - N/A   Overcast
7:53 PM 60.1 °F 57.9 °F 93% 29.63 in 10.0 mi SSW 9.2 mph - N/A   Overcast
8:03 PM 60.8 °F 57.2 °F 88% 29.65 in 10.0 mi SSW 9.2 mph - N/A   Overcast
8:12 PM 60.8 °F 57.2 °F 88% 29.65 in 10.0 mi SSW 8.1 mph - N/A   Overcast
8:24 PM 60.8 °F 57.2 °F 88% 29.64 in 10.0 mi SSW 8.1 mph - N/A   Overcast
8:53 PM 60.1 °F 57.9 °F 93% 29.64 in 10.0 mi SSW 9.2 mph - N/A   Overcast
9:12 PM 60.8 °F 57.2 °F 88% 29.66 in 10.0 mi SSW 8.1 mph - N/A   Overcast
9:20 PM 60.8 °F 57.2 °F 88% 29.66 in 10.0 mi SSW 8.1 mph - N/A   Overcast
9:33 PM 60.8 °F 57.2 °F 88% 29.67 in 10.0 mi SSW 8.1 mph - N/A   Overcast
9:53 PM 60.1 °F 57.9 °F 93% 29.65 in 10.0 mi SSW 10.4 mph - 0.00 in Rain Light Rain
10:36 PM 60.8 °F 57.2 °F 88% 29.68 in 10.0 mi SW 11.5 mph - 0.08 in Rain Light Rain
10:38 PM 60.8 °F 57.2 °F 88% 29.68 in 10.0 mi SW 10.4 mph - 0.08 in Rain Light Rain
10:53 PM 60.1 °F 57.9 °F 93% 29.66 in 10.0 mi SW 10.4 mph - 0.08 in Rain Light Rain
11:18 PM 59.0 °F 57.2 °F 94% 29.68 in 10.0 mi SW 9.2 mph - 0.00 in   Overcast
11:43 PM 59.0 °F 57.2 °F 94% 29.69 in 10.0 mi WSW 10.4 mph - 0.00 in   Overcast
11:53 PM 60.1 °F 57.0 °F 90% 29.67 in 10.0 mi WSW 11.5 mph - 0.00 in   Overcast